KF5FGL Weather Reports


Display with metric or nautical units.
time (UTC)temp
F
wind
direction
speed
MPH
gust
MPH
rain 1hr
in
rain 24hr
in
rain mn
in
humidity
%
barometer
mb
20220703183011 96 157 0.0 6.0 0.00 0.00 0.00 50 1014.0
20220703183001 96 210 1.0 6.0 0.00 0.00 0.00 50 1015.5
20220703181509 93 215 2.0 7.0 0.00 0.00 0.00 53 1014.1
20220703181501 93 192 1.0 6.0 0.00 0.00 0.00 53 1015.6
20220703180009 92 190 0.0 8.0 0.00 0.00 0.00 55 1014.2
20220703180000 93 162 1.0 5.0 0.00 0.00 0.00 55 1015.8
20220703174509 93 190 0.0 8.0 0.00 0.00 0.00 55 1014.4
20220703174501 94 213 1.0 8.0 0.00 0.00 0.00 54 1015.9
20220703173011 92 171 2.0 11.0 0.00 0.00 0.00 54 1014.5
20220703173001 93 216 2.0 11.0 0.00 0.00 0.00 54 1016.0
20220703171509 92 207 2.0 8.0 0.00 0.00 0.00 56 1014.7
20220703171502 92 194 1.0 8.0 0.00 0.00 0.00 56 1016.2
20220703170017 92 232 1.0 8.0 0.00 0.00 0.00 57 1014.8
20220703170001 92 181 1.0 7.0 0.00 0.00 0.00 57 1016.4
20220703164510 92 134 0.0 11.0 0.00 0.00 0.00 57 1014.8
20220703164501 92 193 1.0 11.0 0.00 0.00 0.00 57 1016.3
20220703163012 89 169 0.0 8.0 0.00 0.00 0.00 62 1014.8
20220703163002 90 213 2.0 8.0 0.00 0.00 0.00 62 1016.4
20220703161509 89 134 2.0 10.0 0.00 0.00 0.00 61 1014.9
20220703161501 90 217 2.0 10.0 0.00 0.00 0.00 61 1016.5
20220703160009 90 134 1.0 10.0 0.00 0.00 0.00 62 1014.9
20220703160001 90 192 1.0 10.0 0.00 0.00 0.00 62 1016.4
20220703154510 88 201 0.0 5.0 0.00 0.00 0.00 67 1015.0
20220703154501 88 204 1.0 5.0 0.00 0.00 0.00 67 1016.5
20220703153010 86 230 2.0 10.0 0.00 0.00 0.00 68 1015.0
20220703153001 86 209 2.0 9.0 0.00 0.00 0.00 68 1016.5
20220703151509 86 180 1.0 9.0 0.00 0.00 0.00 69 1014.7
20220703151502 86 181 2.0 9.0 0.00 0.00 0.00 69 1016.3
20220703150011 86 221 2.0 7.0 0.00 0.00 0.00 71 1014.7
20220703150002 87 200 2.0 7.0 0.00 0.00 0.00 71 1016.3
20220703144511 87 203 1.0 6.0 0.00 0.00 0.00 69 1014.7
20220703144501 88 187 1.0 5.0 0.00 0.00 0.00 69 1016.2
20220703143015 86 178 0.0 7.0 0.00 0.00 0.00 75 1014.7
20220703143001 86 197 1.0 6.0 0.00 0.00 0.00 75 1016.3
20220703141509 83 202 0.0 7.0 0.00 0.00 0.00 78 1014.7
20220703141501 84 207 1.0 7.0 0.00 0.00 0.00 78 1016.2
20220703140010 83 211 1.0 6.0 0.00 0.00 0.00 79 1014.5
20220703140002 84 169 1.0 6.0 0.00 0.00 0.00 79 1016.1
20220703134511 83 144 0.0 4.0 0.00 0.00 0.00 81 1014.3
20220703134501 83 196 1.0 4.0 0.00 0.00 0.00 81 1015.9
20220703133010 81 170 0.0 3.0 0.00 0.00 0.00 84 1014.2
20220703133002 82 174 0.0 3.0 0.00 0.00 0.00 84 1015.8
20220703131512 81 184 0.0 1.0 0.00 0.00 0.00 84 1014.2
20220703131502 81 154 0.0 1.0 0.00 0.00 0.00 84 1015.7
20220703130010 81 114 0.0 1.0 0.00 0.00 0.00 84 1014.1
20220703130002 82 0 0.0 0.0 0.00 0.00 0.00 84 1015.6
20220703124510 80 174 0.0 3.0 0.00 0.00 0.00 88 1013.9
20220703124502 80 178 0.0 3.0 0.00 0.00 0.00 88 1015.4
20220703123010 79 184 0.0 1.0 0.00 0.00 0.00 88 1013.9
20220703123001 79 186 0.0 1.0 0.00 0.00 0.00 88 1015.4
20220703121510 79 186 0.0 0.0 0.00 0.00 0.00 86 1014.0
20220703121502 80 0 0.0 0.0 0.00 0.00 0.00 86 1015.5
20220703120012 81 186 0.0 1.0 0.00 0.00 0.00 84 1014.0
20220703120003 81 187 0.0 1.0 0.00 0.00 0.00 84 1015.6
20220703114520 80 196 0.0 0.0 0.00 0.00 0.00 86 1014.0
20220703114501 81 0 0.0 0.0 0.00 0.00 0.00 86 1015.5
20220703113016 79 227 0.0 4.0 0.00 0.00 0.00 87 1013.9
20220703113002 79 223 0.0 4.0 0.00 0.00 0.00 87 1015.4
20220703111512 79 181 0.0 1.0 0.00 0.00 0.00 87 1013.7
20220703111501 79 0 0.0 0.0 0.00 0.00 0.00 87 1015.2
20220703110009 79 181 0.0 1.0 0.00 0.00 0.00 86 1013.4
20220703110002 80 181 0.0 1.0 0.00 0.00 0.00 86 1014.9
20220703104513 80 164 0.0 0.0 0.00 0.00 0.00 84 1013.3
20220703104502 80 0 0.0 0.0 0.00 0.00 0.00 84 1014.8
20220703103010 81 164 0.0 0.0 0.00 0.00 0.00 84 1013.0
20220703103002 81 0 0.0 0.0 0.00 0.00 0.00 84 1014.6
20220703101510 79 163 0.0 1.0 0.00 0.00 0.00 88 1013.0
20220703101502 79 163 0.0 1.0 0.00 0.00 0.00 88 1014.5
20220703100011 79 163 0.0 0.0 0.00 0.00 0.00 87 1012.9
20220703100002 79 0 0.0 0.0 0.00 0.00 0.00 87 1014.4
20220703094509 79 161 0.0 4.0 0.00 0.00 0.00 85 1012.8
20220703094502 80 172 0.0 4.0 0.00 0.00 0.00 85 1014.4
20220703093011 80 152 1.0 5.0 0.00 0.00 0.00 84 1013.0
20220703093003 80 187 0.0 5.0 0.00 0.00 0.00 83 1014.4
20220703091519 80 227 0.0 4.0 0.00 0.00 0.00 84 1013.1
20220703091503 81 189 0.0 3.0 0.00 0.00 0.00 84 1014.8
20220703090011 79 171 0.0 6.0 0.00 0.00 0.00 86 1013.4
20220703090003 80 199 0.0 4.0 0.00 0.00 0.00 86 1014.9
20220703084510 80 180 0.0 5.0 0.00 0.00 0.00 85 1013.4
20220703084502 80 186 1.0 5.0 0.00 0.00 0.00 85 1015.0
20220703083011 80 184 0.0 6.0 0.00 0.00 0.00 84 1013.5
20220703083002 80 179 1.0 6.0 0.00 0.00 0.00 84 1015.0
20220703081514 81 215 1.0 10.0 0.00 0.00 0.00 82 1013.4
20220703081503 81 206 1.0 10.0 0.00 0.00 0.00 82 1015.0
20220703080010 81 197 0.0 8.0 0.00 0.00 0.00 84 1013.3
20220703080002 81 190 1.0 8.0 0.00 0.00 0.00 84 1014.8
20220703074510 80 205 1.0 7.0 0.00 0.00 0.00 84 1013.2
20220703074502 80 203 2.0 7.0 0.00 0.00 0.00 84 1014.7
20220703073010 80 200 0.0 12.0 0.00 0.00 0.00 83 1012.9
20220703073003 81 201 2.0 12.0 0.00 0.00 0.00 83 1014.5
20220703071512 82 202 2.0 8.0 0.00 0.00 0.00 81 1013.0
20220703071502 82 207 1.0 8.0 0.00 0.00 0.00 81 1014.6
20220703070021 82 165 1.0 6.0 0.00 0.00 0.00 82 1012.8
20220703070003 82 182 1.0 6.0 0.00 0.00 0.00 82 1014.4
20220703064510 80 159 0.0 7.0 0.00 0.00 0.00 85 1012.8
20220703064503 81 179 0.0 7.0 0.00 0.00 0.00 85 1014.4
20220703063014 80 159 0.0 6.0 0.00 0.00 0.00 85 1012.7
20220703063002 81 170 0.0 6.0 0.00 0.00 0.00 85 1014.3
20220703061511 81 169 0.0 9.0 0.00 0.00 0.00 84 1012.6
20220703061503 81 191 1.0 8.0 0.00 0.00 0.00 84 1014.2
20220703060011 81 227 0.0 5.0 0.00 0.00 0.00 82 1012.5
20220703060003 82 189 0.0 5.0 0.00 0.00 0.00 82 1014.0
20220703054511 82 181 0.0 5.0 0.00 0.00 0.00 79 1012.3
20220703054503 83 170 0.0 5.0 0.00 0.00 0.00 79 1013.9
20220703053014 81 190 0.0 7.0 0.00 0.00 0.00 82 1012.2
20220703053002 82 203 0.0 6.0 0.00 0.00 0.00 82 1013.8
20220703051511 82 219 0.0 8.0 0.00 0.00 0.00 80 1012.2
20220703051503 82 187 1.0 8.0 0.00 0.00 0.00 80 1013.8
20220703050011 84 184 0.0 6.0 0.00 0.00 0.00 78 1012.1
20220703050004 84 166 0.0 6.0 0.00 0.00 0.00 78 1013.6
20220703044513 84 219 1.0 14.0 0.00 0.00 0.00 77 1011.9
20220703044503 84 170 1.0 13.0 0.00 0.00 0.00 77 1013.5
20220703043011 83 110 0.0 6.0 0.00 0.00 0.00 77 1011.6
20220703043003 84 181 1.0 6.0 0.00 0.00 0.00 77 1013.2
20220703041511 85 126 0.0 11.0 0.00 0.00 0.00 74 1011.5
20220703041504 86 173 1.0 11.0 0.00 0.00 0.00 74 1013.1
20220703040011 86 157 1.0 10.0 0.00 0.00 0.00 73 1011.3
20220703040004 86 174 1.0 10.0 0.00 0.00 0.00 73 1012.9
20220703034512 86 229 1.0 11.0 0.00 0.00 0.00 72 1011.3
20220703034503 86 181 2.0 11.0 0.00 0.00 0.00 72 1012.9
20220703033011 85 143 1.0 11.0 0.00 0.00 0.00 73 1011.0
20220703033003 86 185 1.0 11.0 0.00 0.00 0.00 73 1012.5
20220703031511 86 174 0.0 4.0 0.00 0.00 0.00 71 1010.7
20220703031503 86 176 1.0 4.0 0.00 0.00 0.00 71 1012.2
20220703030012 86 174 0.0 10.0 0.00 0.00 0.00 69 1010.3
20220703030003 87 168 1.0 10.0 0.00 0.00 0.00 69 1011.8
20220703024519 88 180 0.0 9.0 0.00 0.00 0.00 66 1010.1
20220703024503 89 173 1.0 9.0 0.00 0.00 0.00 66 1011.6
20220703023058 88 155 1.0 11.0 0.00 0.00 0.00 66 1009.8
20220703023000 88 168 2.0 11.0 0.00 0.00 0.00 66 1011.3
20220703021559 90 156 1.0 14.0 0.00 0.00 0.00 63 1009.8
20220703021500 90 186 2.0 14.0 0.00 0.00 0.00 63 1011.4
20220703020059 91 234 0.0 8.0 0.00 0.00 0.00 61 1009.4
20220703020000 91 177 2.0 9.0 0.00 0.00 0.00 61 1010.9
20220703014559 91 159 1.0 8.0 0.00 0.00 0.00 59 1009.3
20220703014500 92 178 2.0 8.0 0.00 0.00 0.00 59 1010.8
20220703013058 92 119 0.0 8.0 0.00 0.00 0.00 58 1008.9
20220703013000 92 142 1.0 5.0 0.00 0.00 0.00 58 1010.4
20220703011559 92 164 0.0 9.0 0.00 0.00 0.00 54 1008.6
20220703011500 93 159 1.0 9.0 0.00 0.00 0.00 54 1010.1
20220703010058 95 126 2.0 17.0 0.00 0.00 0.00 50 1008.4
20220703010000 95 147 1.0 16.0 0.00 0.00 0.00 50 1009.9
20220703004559 96 194 0.0 5.0 0.00 0.00 0.00 46 1008.0
20220703004500 97 138 1.0 6.0 0.00 0.00 0.00 45 1009.5
20220703003058 97 157 0.0 11.0 0.00 0.00 0.00 42 1007.8
20220703003000 98 111 1.0 11.0 0.00 0.00 0.00 42 1009.3
20220703001603 97 107 0.0 8.0 0.00 0.00 0.00 43 1007.8
20220703001500 97 188 1.0 8.0 0.00 0.00 0.00 43 1009.4
20220703000059 99 168 0.0 3.0 0.00 0.00 0.00 42 1007.6
20220702235959 99 113 0.0 4.0 0.00 0.00 0.00 42 1009.2
20220702234559 98 146 0.0 8.0 0.00 0.00 0.00 42 1007.8
20220702234459 98 109 2.0 8.0 0.00 0.00 0.00 42 1009.3
20220702233108 100 183 0.0 8.0 0.00 0.00 0.00 40 1007.9
20220702233000 101 116 1.0 8.0 0.00 0.00 0.00 40 1009.4
20220702231608 101 115 0.0 6.0 0.00 0.00 0.00 39 1007.9
20220702231459 101 153 1.0 6.0 0.00 0.00 0.00 39 1009.5
20220702230108 100 165 0.0 5.0 0.00 0.00 0.00 40 1008.1
20220702230000 101 144 1.0 5.0 0.00 0.00 0.00 40 1009.7
20220702224611 101 189 1.0 6.0 0.00 0.00 0.00 40 1008.4
20220702224500 101 121 1.0 10.0 0.00 0.00 0.00 41 1010.0
20220702223108 100 135 0.0 8.0 0.00 0.00 0.00 41 1008.6
20220702223000 100 130 1.0 7.0 0.00 0.00 0.00 40 1010.1
20220702221608 100 100 3.0 8.0 0.00 0.00 0.00 38 1008.6
20220702221500 101 115 1.0 8.0 0.00 0.00 0.00 38 1010.1
20220702220107 102 132 0.0 7.0 0.00 0.00 0.00 38 1008.8
20220702220000 102 202 2.0 7.0 0.00 0.00 0.00 38 1010.3
20220702214501 102 100 1.0 6.0 0.00 0.00 0.00 39 1008.8
20220702213108 101 164 1.0 6.0 0.00 0.00 0.00 40 1009.0
20220702213000 102 174 1.0 6.0 0.00 0.00 0.00 41 1010.6
20220702211607 101 219 0.0 6.0 0.00 0.00 0.00 38 1009.2
20220702211500 102 220 2.0 6.0 0.00 0.00 0.00 37 1010.8
20220702210107 101 184 0.0 4.0 0.00 0.00 0.00 40 1009.2
20220702210001 102 188 1.0 8.0 0.00 0.00 0.00 41 1010.8
20220702204608 101 188 1.0 7.0 0.00 0.00 0.00 39 1009.3
20220702204500 101 184 2.0 7.0 0.00 0.00 0.00 39 1011.0
20220702203112 101 215 1.0 6.0 0.00 0.00 0.00 40 1009.4
20220702203000 102 186 1.0 6.0 0.00 0.00 0.00 40 1011.1
20220702201608 100 185 2.0 7.0 0.00 0.00 0.00 40 1009.8
20220702201500 100 185 2.0 6.0 0.00 0.00 0.00 40 1011.3
20220702200108 99 107 2.0 8.0 0.00 0.00 0.00 42 1009.9
20220702200001 100 131 1.0 6.0 0.00 0.00 0.00 41 1011.5
20220702194607 100 98 2.0 7.0 0.00 0.00 0.00 41 1010.1
20220702194500 101 136 1.0 6.0 0.00 0.00 0.00 41 1011.7
20220702193108 99 182 0.0 9.0 0.00 0.00 0.00 44 1010.4
20220702193000 100 174 2.0 9.0 0.00 0.00 0.00 43 1012.0
20220702191610 100 189 0.0 3.0 0.00 0.00 0.00 44 1010.6
20220702191501 100 158 0.0 3.0 0.00 0.00 0.00 45 1012.1
20220702190108 99 155 1.0 7.0 0.00 0.00 0.00 45 1010.8
20220702190001 99 150 1.0 5.0 0.00 0.00 0.00 46 1012.4
20220702184509 98 223 2.0 6.0 0.00 0.00 0.00 45 1011.1
20220702184501 99 203 0.0 6.0 0.00 0.00 0.00 45 1012.7